Weather History for KHWV - July, 2013

Change the Weather History Date:

Sunday, July 21, 2013

  Actual Average (KISP) Record (KISP)
Temperature  
Mean Temperature 79 °F 74 °F  
Max Temperature 86 °F 82 °F 101 °F (1991)
Min Temperature 71 °F 67 °F 58 °F (2001)
Degree Days  
Heating Degree Days 0 0  
Month to date heating degree days 0  
Since 1 June heating degree days 38  
Since 1 July heating degree days 0  
Cooling Degree Days 14 9  
Month to date cooling degree days 182  
Year to date cooling degree days 346  
Since 1 June cooling degree days 322  
Growing Degree Days 29 (Base 50)    
Moisture  
Dew Point 67 °F    
Average Humidity 72    
Maximum Humidity 93    
Minimum Humidity 44    
Precipitation  
Precipitation 0.00 in 0.11 in 2.69 in (1984)
Month to date precipitation 2.24  
Year to date precipitation 25.97  
Snow  
Snow 0.00 in 0.00 in - ()
Month to date snowfall 0.0  
Since 1 July snowfall 0.0  
Snow Depth -    
Sea Level Pressure  
Sea Level Pressure 29.92 in    
Wind  
Wind Speed 3 mph (ESE)    
Max Wind Speed 10 mph    
Max Gust Speed -    
Visibility 9 miles    
Events      
T = Trace of Precipitation, MM = Missing Value Source: NWS Daily Summary

Daily Weather History Graph

Daily Weather History Graph

Search for Another Location

Airport or City:

Trip Planner

Search our weather history database for the weather conditions in past years. The results will help you decide how hot, cold, wet, or windy it might be!

Date:

Astronomy

Jul. 21, 2013 Rise Set
Actual Time 5:37 AM EDT 8:17 PM EDT
Civil Twilight 5:06 AM EDT 8:49 PM EDT
Nautical Twilight 4:26 AM EDT 9:28 PM EDT
Astronomical Twilight 3:41 AM EDT 10:13 PM EDT
Moon 7:12 PM EDT (7/21) 4:20 AM EDT (7/21)
Length of Visible Light 15h 43m
Length of Day
14h 39m
Waxing Gibbous, 98% of the Moon is Illuminated
Jul 21
Waxing Gibbous
Jul 22
Full
Jul 29
Last Quarter
Aug 6
New
Aug 14
First Quarter

Hourly Weather History & Observations

Time (EDT) Temp. Heat Index Dew Point Humidity Pressure Visibility Wind Dir Wind Speed Gust Speed Precip Events Conditions
12:56 AM 77.0 °F - 72.0 °F 84% 29.85 in 8.0 mi Calm Calm - N/A   Mostly Cloudy
1:56 AM 75.9 °F - 72.0 °F 87% 29.86 in 8.0 mi Calm Calm - N/A   Scattered Clouds
2:56 AM 75.0 °F - 72.0 °F 90% 29.86 in 6.0 mi Calm Calm - N/A   Partly Cloudy
3:56 AM 73.9 °F - 72.0 °F 93% 29.85 in 5.0 mi Calm Calm - N/A   Partly Cloudy
4:56 AM 73.9 °F - 71.1 °F 91% 29.87 in 5.0 mi NNE 4.6 mph - N/A   Scattered Clouds
5:56 AM 73.9 °F - 72.0 °F 93% 29.89 in 5.0 mi Calm Calm - N/A   Clear
6:56 AM 75.0 °F - 70.0 °F 84% 29.89 in 8.0 mi NNE 3.5 mph - N/A   Partly Cloudy
7:56 AM 78.1 °F - 69.1 °F 74% 29.91 in 10.0 mi Variable 3.5 mph - N/A   Scattered Clouds
8:56 AM 81.0 °F 82.2 °F 63.0 °F 54% 29.93 in 10.0 mi NNE 5.8 mph - N/A   Clear
9:56 AM 79.0 °F - 62.1 °F 56% 29.94 in 10.0 mi Variable 4.6 mph - N/A   Mostly Cloudy
10:56 AM 81.0 °F 81.7 °F 61.0 °F 50% 29.94 in 10.0 mi Variable 5.8 mph - N/A   Clear
11:56 AM 84.0 °F 84.0 °F 60.1 °F 44% 29.94 in 10.0 mi ENE 8.1 mph - N/A   Clear
12:56 PM 86.0 °F 87.3 °F 64.0 °F 48% 29.95 in 10.0 mi Variable 5.8 mph - N/A   Scattered Clouds
1:56 PM 82.9 °F 83.3 °F 61.0 °F 47% 29.95 in 10.0 mi SE 8.1 mph - N/A   Mostly Cloudy
2:56 PM 82.0 °F 82.7 °F 61.0 °F 49% 29.95 in 10.0 mi SE 10.4 mph - N/A   Clear
3:56 PM 82.0 °F 84.1 °F 66.0 °F 58% 29.95 in 10.0 mi SE 8.1 mph - N/A   Clear
4:56 PM 81.0 °F 83.3 °F 66.9 °F 62% 29.94 in 10.0 mi Variable 4.6 mph - N/A   Clear
5:56 PM 81.0 °F 83.8 °F 68.0 °F 65% 29.94 in 10.0 mi SSE 4.6 mph - N/A   Clear
6:56 PM 78.1 °F - 68.0 °F 71% 29.94 in 10.0 mi SE 4.6 mph - N/A   Clear
7:56 PM 75.0 °F - 68.0 °F 79% 29.94 in 10.0 mi SE 3.5 mph - N/A   Clear
8:56 PM 73.9 °F - 69.1 °F 85% 29.95 in 10.0 mi SE 3.5 mph - N/A   Clear
9:56 PM 73.0 °F - 69.1 °F 87% 29.98 in 10.0 mi Calm Calm - N/A   Clear
10:56 PM 72.0 °F - 69.1 °F 91% 29.97 in 10.0 mi Calm Calm - N/A   Partly Cloudy
11:56 PM 71.1 °F - 68.0 °F 90% 29.96 in 9.0 mi Calm Calm - N/A   Clear